Regional Weather Roundup
Issued by NWS

Home | Current Version | Previous Version | Text Only | Print | Product List | Glossary On
Versions: 1 2 3 4 5 6 7 8 9 10 11 12 13 14 15 16 17 18 19 20 21 22 23 24 25 26 27 28 29 30 31 32 33 34 35 36 37 38 39 40 41 42 43 44 45 46 47 48 49 50
000
ASUS42 KFFC 051803
RWRGA
WEATHER ROUNDUP FOR GEORGIA
NATIONAL WEATHER SERVICE PEACHTREE CITY GA
200 PM EDT TUE MAY 05 2015

NOTE: "FAIR" INDICATES FEW OR NO CLOUDS BELOW 12,000 FEET WITH NO
SIGNIFICANT WEATHER AND/OR OBSTRUCTIONS TO VISIBILITY.

* = USE WITH CAUTION. THE STATIONS MARKED WITH AN ASTERISK MAY NOT
REPORT WEATHER SUCH AS PRECIPITATION, FOG, OR THUNDER AND ARE NOT
QUALITY CONTROLLED BY NWS.

THE REMARK "TC" DENOTES TEMPERATURE READING IN DEGREES CELSIUS.

GAZ001>058-051900-
NORTH GEORGIA

CITY           SKY/WX    TMP DP  RH WIND       PRES   REMARKS
ATLANTA        MOSUNNY   79  55  43 E10       30.30F
6HR MIN TEMP:  63; 6HR MAX TEMP:  79;

ATHENS         SUNNY     80  55  42 E7        30.31F
6HR MIN TEMP:  60; 6HR MAX TEMP:  80;

CHAMBLEE       MOSUNNY   79  54  41 VRB5      30.30F
6HR MIN TEMP:  60; 6HR MAX TEMP:  79;

PEACHTREE CITY SUNNY     79  54  41 E6G18     30.29F
6HR MIN TEMP:  55; 6HR MAX TEMP:  79;

ROME           SUNNY     79  55  43 VRB3      30.28F
WEST ATLANTA   MOSUNNY   80  54  40 E9        30.29F
6HR MIN TEMP:  58; 6HR MAX TEMP:  80;

GAINESVILLE    SUNNY     78  54  43 VRB3      30.32F
6HR MIN TEMP:  61; 6HR MAX TEMP:  78;

CARTERSVILLE   SUNNY     80  54  40 NE8       30.29F
6HR MIN TEMP:  56; 6HR MAX TEMP:  80;



CITY           SKY/WX    TMP DP  RH WIND       PRES   REMARKS
DALTON*        SUNNY     77  54  44 SE3       30.29F
LAWRENCEVILLE* MOSUNNY   79  54  41 E7        30.30F
MARIETTA       MOSUNNY   77  55  45 VRB6      30.29F
KENNESAW*      MOSUNNY   81  55  41 NE5       30.30F
BLAIRSVILLE*     N/A     79  -5   4 E6        30.31F
$$

GAZ059>098-102>109-051900-
CENTRAL GEORGIA

CITY           SKY/WX    TMP DP  RH WIND       PRES   REMARKS
AUGUSTA-BUSH   SUNNY     81  53  37 E12       30.29F
6HR MIN TEMP:  57; 6HR MAX TEMP:  81;

AUGUSTA-DANIEL SUNNY     81  52  36 VRB3G16   30.30F
6HR MIN TEMP:  65; 6HR MAX TEMP:  81;

COLUMBUS       MOSUNNY   81  51  35 E13       30.25F
6HR MIN TEMP:  61; 6HR MAX TEMP:  81;

MACON          MOSUNNY   79  53  40 E14G22    30.27F
6HR MIN TEMP:  58; 6HR MAX TEMP:  81;

ROBINS AFB     MOSUNNY   80  52  36 NE13      30.26F


CITY           SKY/WX    TMP DP  RH WIND       PRES   REMARKS
LAGRANGE*      PTSUNNY   82  60  46 E7        30.27F
SYLVANIA*      PTSUNNY   79  56  45 E9        30.30F
MILLEDGEVILLE* MOSUNNY   81  57  44 E3        30.28F
$$

GAZ099>101-110>166-051900-
SOUTH GEORGIA

CITY           SKY/WX    TMP DP  RH WIND       PRES   REMARKS
SAVANNAH       PTSUNNY   76  54  46 NE16G22   30.29F
6HR MIN TEMP:  64; 6HR MAX TEMP:  80;

VALDOSTA       PTSUNNY   80  57  45 NE12      30.22F
6HR MIN TEMP:  64; 6HR MAX TEMP:  82;

ALMA           PTSUNNY   79  57  46 VRB6      30.25F
6HR MIN TEMP:  63; 6HR MAX TEMP:  80;

ST SIMONS      MOSUNNY   78  58  49 E16G23    30.27F
6HR MIN TEMP:  71; 6HR MAX TEMP:  79;

FT STEWART     MOSUNNY   79  56  44 E15       30.26F
ALBANY         MOSUNNY   80  52  37 E13G23    30.26F
HUNTER AFB     MOSUNNY   78  60  53 NE8G16    30.27F
MOODY AFB      PTSUNNY   80  55  42 NE9       30.21F
BRUNSWICK      MOSUNNY   79  57  47 NE15G22   30.27F


CITY           SKY/WX    TMP DP  RH WIND       PRES   REMARKS
BAINBRIDGE*    MOSUNNY   84  55  37 E13G30    30.22F
MOULTRIE*      SUNNY     79  54  41 E7        30.23F
VIDALIA*       MOSUNNY   79  55  44 E13       30.27F
WAYCROSS*      CLOUDY    83  63  49 E13       30.24F
DOUGLAS*       PTSUNNY   79  54  41 E7        30.26F
$$


USA.gov is the U.S. government's official web portal to all federal, state and local government web resources and services.